www.pogodaiklimat.ru

Погода и климат >> Архив погоды >> Россия >> Орловская область >> Мценск


ПОГОДА в Мценске

  • Прогноз погоды в Мценске
  • Монитор погоды в Мценске

АРХИВ ПОГОДЫ в Мценске

Время (UTC), дата Ветер
(напр.,м/с)
 
Видим.   Явления Облачность Т
(С)
Тd
(С)
f
(%)
Тe
(С)
Тes
(С)
Комфортность P
(гПа)
Po
(гПа)
Тmin
(С)
Tmax
(С)
R
(мм)
R24
(мм)
S
(см)
00 12.09 штиль 0 4000 м дымка 5/0
[Ac trans]
+8.2 +7.5 95 +7 +7 1030.1 1005.6
03 12.09 штиль 0 5000 м дымка 4/0
[Ci fib]
+7.3 +6.8 97 +6 +6 1030.3 1005.8 +7.3
06 12.09 ЮВ 1 18 км 4/0
[Ci fib]
+15.4 +9.0 66 +16 +20 1029.5 1005.7 +7.0
09 12.09 Ю 2 30 км 8/3 600 м
[Sc Ci fib]
+26.0 +5.2 26 +25 +30 комфорт 1028.0 1005.0
12 12.09 ЮЗ 1 30 км 8/3 600 м
[Sc Ci fib]
+26.3 +4.7 25 +25 +30 комфорт 1026.6 1003.7
15 12.09 ЮЗ 1 30 км 8/0
[Cs]
+23.3 +6.7 34 +24 +24 комфорт 1025.8 1002.7
18 12.09 штиль 0 10 км 4/0
[Ci fib]
+16.1 +7.0 55 +16 +16 1026.3 1002.6 +27.0
21 12.09 штиль 0 10 км 3/0
[Ci fib]
+11.9 +8.1 78 +11 +11 1025.9 1001.8
00 13.09 Ю 1 10 км 3/0
[Ci fib]
+10.4 +7.2 81 +10 +10 1025.3 1001.1
03 13.09 Ю 1 8000 м дымка 4/0
[Ci fib]
+8.1 +6.9 92 +7 +7 1024.6 1000.3 +8.0
06 13.09 штиль 0 22 км 6/0
[Ac trans Ci fib]
+16.5 +10.3 67 +16 +20 1023.5 999.9 +8.0
09 13.09 ЮЗ 2 28 км 6/0
[Ac trans Ci fib]
+25.4 +7.2 31 +25 +32 комфорт 1021.6 998.8
12 13.09 ЮЗ 3 30 км 8/4 600 м
[Cu med, cong Ac trans Ci fib]
+26.7 +5.5 26 +26 +28 жарко 1019.3 996.6
15 13.09 ЮЗ 1 30 км 8/5 600 м
[Cb calv Ac trans]
+23.4 +8.7 39 +25 +25 комфорт 1018.1 995.1
18 13.09 ЮЗ 1 20 км 4/0
[Ac trans]
+16.8 +9.0 60 +18 +18 1017.6 994.1 +27.2
21 13.09 З 1 10 км 6/3 600 м
[Cb calv Ac trans]
+16.5 +10.1 66 +17 +17 1016.8 993.3
00 14.09 ЮЗ 1 10 км 6/0
[Ac trans Ci fib]
+13.6 +9.8 78 +14 +14 1015.9 992.3
03 14.09 ЮЗ 1 20 км 10/10 600 м
[Cb calv]
+15.1 +9.8 71 +16 +16 1015.9 991.2 +13.2
06 14.09 СЗ 5-10
{10}
23 км {ливн. осадки} 10/10 600 м
[Cb calv]
+15.4 +8.4 63 +14 +14 1016.0 992.4 +13.2 0.3
09 14.09 СЗ 5-10
{10}
30 км 8/8 600 м
[Cb calv]
+15.2 +7.0 58 +14 +15 1017.4 993.8
12 14.09 СЗ 4
{10}
30 км 9/9 600 м
[Cb calv Cc]
+15.0 +6.7 58 +14 +14 1018.2 994.6
15 14.09 СЗ 4 30 км 3/3 1000 м
[Cu hum]
+15.2 +2.5 42 +14 +14 1018.4 994.8
18 14.09 З 1 10 км ясно +10.6 +3.4 61 +11 +11 1019.6 995.6 +16.6
21 14.09 З 2 10 км 10/0
[Ac As]
+8.8 +4.4 74 +7 +7 1019.9 995.7
00 15.09 З 2 10 км 4/0
[Ac trans]
+7.4 +4.6 82 +5 +5 1019.5 995.2
03 15.09 З 1 15 км 6/6 600 м
[Cb calv]
+6.9 +4.6 85 +6 +6 1019.8 995.5 +6.6
06 15.09 З 3 20 км ясно +9.8 +5.6 75 +8 +10 1020.0 995.9 +6.2
09 15.09 З 3 30 км 8/8 600 м
[Cb calv]
+14.6 +3.7 48 +14 +15 1019.0 995.3
12 15.09 З 3 35 км 8/4 600 м
[Sc Ac trans Ci fib]
+16.5 +2.3 38 +16 +18 1016.7 993.2
15 15.09 ЮЗ 1 30 км 8/0
[Ac trans Cs]
+14.8 +2.5 43 +16 +16 1014.6 991.0
18 15.09 ЮЗ 1 10 км 10/0
[Ac trans Ci fib]
+13.7 +2.8 48 +14 +14 1012.9 989.3 +17.0
21 15.09 ЮЗ 2 10 км 10/3 600 м
[Sc Ac und]
+13.3 +3.3 51 +13 +13 1010.2 986.6
00 16.09 ЮЗ 2 10 км 10/0
[Ac und]
+12.8 +3.9 55 +12 +12 1007.4 983.9
03 16.09 З 2 10 км {ливн. осадки} 10/10 600 м
[Cb calv]
+12.3 +4.3 58 +12 +12 1005.5 982.0 +11.1 0.0
06 16.09 ЮЗ 2 7000 м слаб. ливневой дождь 10/10 600 м
[Cb cap]
+9.7 +8.8 94 +8 +8 1004.9 981.2 +9.6 2
09 16.09 З 3 24 км слаб. ливневой дождь 10/10 600 м
[Cb cap]
+14.2 +10.2 77 +13 +13 1003.3 980.0
12 16.09 З 3
{11}
29 км {ливн. осадки} 9/9 600 м
[Cb calv]
+14.9 +8.8 67 +14 +15 1003.0 979.7
15 16.09 З 3
{11}
30 км 9/5 600 м
[Cb calv Ac trans]
+16.0 +5.0 48 +16 +16 1003.0 979.8 0.7
18 16.09 З 1 10 км 3/0
[Ac trans]
+12.2 +4.6 60 +12 +12 1004.0 980.5 +17.3 0.7
21 16.09 ЮЗ 1 10 км 5/0
[Ac trans]
+11.1 +5.0 66 +11 +11 1003.4 979.8
00 17.09 ЮЗ 1 10 км 4/0
[Ac trans]
+9.3 +5.0 74 +9 +9 1002.5 978.8
03 17.09 ЮЗ 1 19 км ясно +7.2 +4.6 84 +6 +6 1002.3 978.4 +7.2
06 17.09 З 3 22 км 6/3 600 м
[Cb calv Ac trans]
+10.5 +6.0 74 +9 +10 1002.4 978.8 +7.2
09 17.09 З 4
{11}
30 км 8/6 600 м
[Cb calv Ac trans]
+13.6 +4.1 53 +12 +14 1002.1 978.7
12 17.09 З 4
{11}
35 км 3/3 1000 м
[Cu hum]
+15.3 +2.7 43 +14 +17 1001.4 978.2
15 17.09 З 1
{11}
30 км 3/3 600 м
[Sc]
+12.6 +3.2 53 +13 +13 1002.1 978.6
18 17.09 ЮЗ 1 10 км 3/0
[Ac trans]
+8.1 +3.5 73 +8 +8 1003.2 979.3 +15.6
21 17.09 ЮЗ 1 10 км 3/0
[Ac trans]
+6.5 +2.4 75 +6 +6 1003.0 979.0
00 18.09 ЮЗ 1 10 км 10/0
[Ac und]
+6.5 +2.7 77 +6 +6 1001.7 977.7
03 18.09 ЮЗ 1 20 км 10/6 600 м
[Sc Ac und]
+6.8 +2.8 76 +6 +6 1000.6 976.7 +6.0
06 18.09 штиль 0 9000 м слаб. ливневой дождь 10/10 600 м
[Cb cap]
+7.4 +6.4 93 +6 +6 999.3 975.5 +6.0 0.4
09 18.09 ЮВ 1 14 км {ливн. осадки} 9/9 600 м
[Cb calv]
+9.7 +7.4 86 +9 +10 997.9 974.3
12 18.09 ЮЗ 1 22 км {ливн. осадки} 10/8 600 м
[Cb calv Ac und]
+11.6 +7.0 73 +12 +12 996.1 972.8
15 18.09 З 2
{11}
9000 м слаб. ливневой дождь 10/10 600 м
[Cb cap]
+6.2 +5.3 94 +4 +4 997.8 973.9 11
18 18.09 З 2 4000 м дымка {ливн. осадки} 10/10 600 м
[Cb calv]
+6.7 +6.1 96 +4 +4 999.0 975.1 +12.5 16
21 18.09 СЗ 3 4000 м дымка 10/10 600 м
[Cb calv]
+7.8 +7.1 95 +5 +5 1001.8 977.9

 

Местоположение метеостанции Мценск (Орловская область, Россия): широта 53.28 долгота 36.54 высота над уровнем моря 201 м.

В архиве по умолчанию представлена погода в Мценске за последнюю неделю. Архивные данные за месяц целиком и за предыдущие месяцы, начиная с января 2011 года, Вы можете получить, выбрав интересующий диапазон дат из раскрывающегося списка и нажав кнопку "Ввод!".


*Определитесь, кто Вы:
робот инопланетянин человек

Внимание! Время в таблицах - всемирное. Для получения местного времени необходимо прибавить поправку, которая равна 3 ч.

Смотрите также архив погоды в соседних городах и на ближайших метеорологических станциях:

Погода в Болхове (Орловская область, Россия) (38 км)
Погода в Орле (Орловская область, Россия) (53 км)
Погода в Плавске (Тульская область, Россия) (61 км)
Погода в Верховье (Орловская область, Россия) (71 км)
Погода в Суворове (Тульская область, Россия) (95 км)
Погода в Волово (Тульская область, Россия) (102 км)
Погода в Карачеве (Брянская область, Россия) (104 км)
Погода в Ефремове (Тульская область, Россия) (106 км)
Погода в Понырях (Курская область, Россия) (108 км)
Погода в Ливнах (Орловская область, Россия) (118 км)

Пояснения к столбцам:

Ветер - указаны скорость ветра в м/с - средняя за 10 мин, порывы в срок и между сроками (в фигурных скобках) и направление, откуда дует ветер: С - северный, СВ - северо-восточный, В - восточный, ЮВ - юго-восточный, Ю - южный, ЮЗ - юго-западный, З - западный, СЗ - северо-западный.
Видимость - горизонтальная дальность видимости в метрах или километрах. При видимости от 1 до 10 км при отсутствии осадков обычно наблюдается дымка, при ухудшении видимости до 1 км и менее - туман. В сухую погоду видимость может ухудшаться дымом, пылью или мглою.
Явления - указаны атмосферные явления, наблюдавшиеся в срок или в последний час перед сроком; фигурными скобками обозначены явления, наблюдавшиеся между сроками (за 1-3 часа до срока); квадратными скобками обозначены град или гололедные отложения с указанием их диаметра в мм.
Облачность - указаны через наклонную черту общая и нижняя облачность в баллах и высота нижней границы облаков в метрах; квадратными скобками обозначены формы облаков: Ci - перистые, Cs - перисто-слоистые, Cc - перисто-кучевые, Ac - высококучевые, As - высокослоистые, Sc - слоисто-кучевые, Ns - слоисто-дождевые, Cu - кучевые, Cb - кучево-дождевые. Подробнее классификацию облаков см. в Атласе облаков (PDF).
T - Температура воздуха - температура, измеренная на высоте 2 м над землей.
Td - Температура точки росы - температура, при понижении до которой содержащийся в воздухе водяной пар достигнет насыщения.
f - Относительная влажность воздуха - влажноcть воздуха, измеренная на высоте 2 м над землей.
Te - Эффективная температура - температура, которую ощущает одетый по сезону человек в тени. Характеристика душности погоды. При расчете учитывается влияние влажности воздуха и скорости ветра на теплоощущения человека.
Tes - Эффективная температура на солнце - температура, которую ощущает человек, с поправкой на солнечный нагрев. Характеристика знойности погоды. Зависит от высоты солнца над горизонтом, облачности и скорости ветра. Ночью, в пасмурную погоду, а также при ветре 12 м/с и более поправка равна нулю.
P - Атмосферное давление - приведенное к уровню моря атмосферное давление.
Po - Атмосферное давление - измеренное на уровне метеостанции атмосферное давление.
Tmin - Минимальная температура - минимум температуры воздуха на высоте 2 м над землей.
Tmax - Максимальная температура - максимум температуры воздуха на высоте 2 м над землей.
R - Количество осадков - Количество выпавших осадков за период времени, мм. При наведении курсора мыши на число - период времени, за который выпало указанное количество осадков.
R24 - Количество осадков - Количество выпавших осадков за 24 часа, мм.
S - Снежный покров - Высота снежного покрова, см. При наведении курсора мыши на число - состояние снежного покрова и степень покрытия местности в баллах.